Location: Unspecified
(48.2082°N, 0.0000°E)
Time: 13:06:02
(UTC+00:00)

S-56A Canister/Altair - Pass Details

Date: 29 June 2019
Orbit: 632 x 2500 km, 38.9° (Epoch: 22 July)

Event Time Altitude Azimuth Distance (km) Brightness Sun altitude
Rises 15:49:59 0° 257° (WSW) 5,550 12.8 39.1°
Reaches altitude 10° 15:54:12 10° 253° (WSW) 4,278 12.6 38.4°
Maximum altitude 16:04:20 46° 185° (S) 1,806 10.0 36.7°
Drops below altitude 10° 16:11:10 10° 114° (ESE) 2,901 10.1 35.6°
Sets 16:13:30 0° 108° (ESE) 3,656 10.5 35.2°
